カタログに戻る

KSLV-II R/B

運用中SSO
NORAD 66663·ROCKET BODY·🇰🇷 South Korea

打ち上げ Nov 26, 2025 から Naro Space Center

Loading…

次のパス (今後24時間)

TLE

最新Source: Space-Track

元期: Sep 14, 2026, 13:25 UTC

1 66663U 25274P   26257.55952632  .00005791  00000-0  46535-3 0  9994
2 66663  97.7535 188.0398 0064761 102.3206 258.5277 14.98755717 43715

AllMySatでKSLV-II R/Bをリアルタイム追跡

Download on the App Store